Terminal Aerodrome Forecast
Issued by NWS

Home | Current Version | Previous Version | Text Only | Print | Product List | Glossary Off
Versions: 1 2 3 4 5 6 7 8 9 10 11 12 13 14 15 16 17 18 19 20 21 22 23 24 25 26 27 28 29 30 31 32 33 34 35

000
FTUS43 KLOT 131100
TAFORD
TAF
KORD 131120Z 1312/1418 31008KT P6SM SCT010 BKN014
     FM131400 32008KT P6SM SCT025 SCT250
     FM131600 35010G15KT P6SM FEW030 SCT250
     FM132200 03007KT P6SM FEW250
     FM140000 VRB04KT P6SM FEW250
     FM141500 22009KT P6SM FEW035 SCT250=

USA.gov is the U.S. government's official web portal to all federal, state and local government web resources and services.